Weather History for Orangeburg, SC

Change the Weather History Date:

Sunday, February 2, 2014

  Actual Average Record
Temperature  
Mean Temperature 55 °F 47 °F  
Max Temperature 66 °F 58 °F 78 °F (1990)
Min Temperature 43 °F 37 °F 12 °F (1980)
Degree Days  
Heating Degree Days 10 18  
Month to date heating degree days 38 36  
Since 1 July heating degree days 1535 1533  
Cooling Degree Days 0 0  
Month to date cooling degree days 0 0  
Year to date cooling degree days 0 1  
Growing Degree Days 4 (Base 50)    
Moisture  
Dew Point 46 °F    
Average Humidity 90    
Maximum Humidity 100    
Minimum Humidity 63    
Precipitation  
Precipitation 0.00 in 0.10 in 2.40 in (1973)
Month to date precipitation 0.58 0.19  
Year to date precipitation 2.74 4.17  
Sea Level Pressure  
Sea Level Pressure 30.13 in    
Wind  
Wind Speed 4 mph (SW)    
Max Wind Speed 9 mph    
Max Gust Speed 11 mph    
Visibility 5 miles    
Events Fog    
T = Trace of Precipitation, MM = Missing Value Source: NWS Daily Summary

Daily Weather History Graph

Daily Weather History Graph

Search for Another Location

Airport:

Trip Planner

Search our weather history database for the weather conditions in past years. The results will help you decide how hot, cold, wet, or windy it might be!

Date:

Astronomy

Feb. 02, 2014 Rise Set
Actual Time 7:18 AM EST 5:55 PM EST
Civil Twilight 6:52 AM EST 6:21 PM EST
Nautical Twilight 6:23 AM EST 6:51 PM EST
Astronomical Twilight 5:53 AM EST 7:20 PM EST
Moon 8:56 AM EST (2/2) 9:24 PM EST (2/2)
Length of Visible Light 11h 29m
Length of Day
10h 37m
Waxing Crescent, 11% of the Moon is Illuminated
Feb 2
Waxing Crescent
Feb 6
First Quarter
Feb 14
Full
Feb 22
Last Quarter
Mar 1
New

Hourly Weather History & Observations

Time (EST) Temp. Windchill Dew Point Humidity Pressure Visibility Wind Dir Wind Speed Gust Speed Precip Events Conditions
12:28 AM 44.1 °F - 42.1 °F 93% 30.16 in 3.0 mi Calm Calm - N/A   Overcast
12:45 AM 44.1 °F 42.5 °F 42.1 °F 93% 30.16 in 4.0 mi WSW 3.5 mph - N/A   Overcast
12:53 AM 44.1 °F 42.5 °F 42.1 °F 93% 30.16 in 4.0 mi SW 3.5 mph - N/A   Overcast
1:15 AM 44.1 °F 42.5 °F 42.1 °F 93% 30.15 in 2.0 mi WSW 3.5 mph - N/A   Overcast
1:23 AM 44.1 °F 41.5 °F 42.1 °F 93% 30.15 in 1.5 mi WSW 4.6 mph - N/A   Overcast
1:32 AM 44.1 °F 42.5 °F 43.0 °F 96% 30.15 in 2.0 mi West 3.5 mph - N/A   Overcast
1:53 AM 45.0 °F - 43.0 °F 93% 30.15 in 2.5 mi Calm Calm - N/A   Overcast
2:05 AM 45.0 °F 43.5 °F 43.0 °F 93% 30.14 in 3.0 mi SW 3.5 mph - N/A   Overcast
2:18 AM 45.0 °F - 43.0 °F 93% 30.14 in 2.5 mi Calm Calm - N/A   Overcast
2:32 AM 44.1 °F 42.5 °F 42.1 °F 93% 30.14 in 3.0 mi SW 3.5 mph - N/A   Overcast
2:39 AM 44.1 °F 42.5 °F 42.1 °F 93% 30.14 in 2.5 mi SW 3.5 mph - N/A   Overcast
2:46 AM 43.0 °F 41.3 °F 42.1 °F 97% 30.14 in 1.5 mi SW 3.5 mph - N/A   Overcast
2:53 AM 44.1 °F 42.5 °F 42.1 °F 93% 30.14 in 1.8 mi SSW 3.5 mph - N/A   Overcast
2:57 AM 44.1 °F - 42.1 °F 93% 30.14 in 3.0 mi Calm Calm - N/A   Overcast
3:53 AM 44.1 °F - 43.0 °F 96% 30.14 in 3.0 mi Calm Calm - N/A   Overcast
4:53 AM 44.1 °F - 43.0 °F 96% 30.14 in 2.5 mi Calm Calm - N/A   Overcast
4:59 AM 44.1 °F - 43.0 °F 96% 30.14 in 1.5 mi Calm Calm - N/A   Overcast
5:12 AM 44.1 °F - 43.0 °F 96% 30.13 in 0.5 mi Calm Calm - N/A Fog Fog
5:53 AM 44.1 °F 42.5 °F 43.0 °F 96% 30.14 in 0.2 mi WSW 3.5 mph - N/A Fog Fog
6:53 AM 43.0 °F 39.5 °F 42.1 °F 97% 30.14 in 0.2 mi SW 5.8 mph - N/A Fog Fog
7:53 AM 43.0 °F 41.3 °F 42.1 °F 97% 30.14 in 0.2 mi WSW 3.5 mph - N/A Fog Fog
8:53 AM 45.0 °F 41.8 °F 43.0 °F 93% 30.17 in 0.2 mi WSW 5.8 mph - N/A Fog Fog
9:53 AM 46.9 °F - 45.0 °F 93% 30.19 in 0.5 mi West 6.9 mph - N/A Fog Fog
10:13 AM 46.9 °F - 46.0 °F 97% 30.19 in 1.5 mi WSW 6.9 mph - N/A   Overcast
10:30 AM 48.0 °F - 46.0 °F 93% 30.19 in 2.0 mi West 9.2 mph - N/A   Overcast
10:41 AM 48.0 °F - 46.0 °F 93% 30.19 in 5.0 mi WSW 6.9 mph - N/A   Overcast
10:53 AM 48.9 °F - 46.9 °F 93% 30.19 in 6.0 mi West 5.8 mph - N/A   Overcast
11:53 AM 50.0 °F - 48.0 °F 93% 30.17 in 7.0 mi SW 5.8 mph - N/A   Overcast
12:43 PM 53.1 °F - 48.9 °F 86% 30.15 in 9.0 mi West 6.9 mph - N/A   Overcast
12:53 PM 53.1 °F - 48.9 °F 86% 30.14 in 10.0 mi West 4.6 mph - N/A   Overcast
1:39 PM 57.0 °F - 50.0 °F 77% 30.12 in 10.0 mi NW 3.5 mph - N/A   Scattered Clouds
1:53 PM 57.9 °F - 50.0 °F 75% 30.11 in 10.0 mi Calm Calm - N/A   Clear
2:53 PM 62.1 °F - 52.0 °F 70% 30.09 in 10.0 mi NW 3.5 mph - N/A   Clear
3:53 PM 64.9 °F - 52.0 °F 63% 30.08 in 10.0 mi Calm Calm - N/A   Clear
4:53 PM 66.0 °F - 53.1 °F 63% 30.07 in 10.0 mi ESE 3.5 mph - N/A   Clear
5:53 PM 63.0 °F - 54.0 °F 72% 30.07 in 10.0 mi SSE 4.6 mph - N/A   Clear
6:53 PM 55.9 °F - 52.0 °F 87% 30.07 in 10.0 mi SE 3.5 mph - N/A   Clear
7:53 PM 54.0 °F - 52.0 °F 93% 30.07 in 10.0 mi SSE 3.5 mph - N/A   Clear
8:53 PM 57.0 °F - 53.1 °F 87% 30.06 in 10.0 mi South 3.5 mph - N/A   Clear
9:42 PM 53.1 °F - 51.1 °F 93% 30.07 in 1.5 mi Calm Calm - N/A   Clear
9:53 PM 53.1 °F - 51.1 °F 93% 30.06 in 1.8 mi South 3.5 mph - N/A   Clear
9:55 PM 53.1 °F - 51.1 °F 93% 30.07 in 4.0 mi Calm Calm - N/A   Clear
10:53 PM 55.9 °F - 52.0 °F 87% 30.05 in 10.0 mi South 5.8 mph - N/A   Clear
11:53 PM 54.0 °F - 51.1 °F 90% 30.04 in 10.0 mi South 3.5 mph - N/A   Clear